Time,TemperatureF,DewpointF,PressureIn,WindDirection,WindDirectionDegrees,WindSpeedMPH,WindSpeedGustMPH,Humidity,HourlyPrecipIn,Conditions,Clouds,dailyrainin,SoftwareType,DateUTC
2013-10-13 00:05:00,70.5,64.0,29.95,NNW,337,0.0,-999.0,80,-99.99,,,0.00,Acu-Link.com,2013-10-13 04:05:00,
2013-10-13 00:20:00,70.2,64.4,29.95,NNW,337,0.0,-999.0,82,-99.99,,,0.00,Acu-Link.com,2013-10-13 04:20:00,
2013-10-13 00:35:00,69.8,64.4,29.95,NNW,337,0.0,-999.0,83,-99.99,,,0.00,Acu-Link.com,2013-10-13 04:35:00,
2013-10-13 00:51:00,69.6,64.9,29.94,NNW,337,0.0,-999.0,85,-99.99,,,0.00,Acu-Link.com,2013-10-13 04:51:00,
2013-10-13 01:06:00,69.3,64.6,29.94,NNW,337,0.0,-999.0,85,-99.99,,,0.00,Acu-Link.com,2013-10-13 05:06:00,
2013-10-13 01:21:00,69.3,64.6,29.94,NNW,337,0.0,-999.0,85,-99.99,,,0.00,Acu-Link.com,2013-10-13 05:21:00,
2013-10-13 01:37:00,69.3,64.6,29.94,NNW,337,0.0,-999.0,85,-99.99,,,0.00,Acu-Link.com,2013-10-13 05:37:00,
2013-10-13 01:52:00,69.3,65.2,29.94,NNW,337,0.0,-999.0,87,-99.99,,,0.00,Acu-Link.com,2013-10-13 05:52:00,
2013-10-13 02:07:00,69.6,65.9,29.94,NNW,337,0.0,-999.0,88,-99.99,,,0.00,Acu-Link.com,2013-10-13 06:07:00,
2013-10-13 02:22:00,69.4,66.1,29.93,NNW,337,0.0,-999.0,89,-99.99,,,0.00,Acu-Link.com,2013-10-13 06:22:00,
2013-10-13 02:38:00,69.3,65.9,29.93,NNW,337,0.0,-999.0,89,-99.99,,,0.00,Acu-Link.com,2013-10-13 06:38:00,
2013-10-13 02:53:00,68.9,65.8,29.92,NNW,337,0.0,-999.0,90,-99.99,,,0.00,Acu-Link.com,2013-10-13 06:53:00,
2013-10-13 03:11:00,68.5,65.8,29.92,NNW,337,0.0,-999.0,91,-99.99,,,0.00,Acu-Link.com,2013-10-13 07:11:00,
2013-10-13 03:26:00,68.4,65.6,29.92,NNW,337,0.0,-999.0,91,-99.99,,,0.00,Acu-Link.com,2013-10-13 07:26:00,
2013-10-13 03:42:00,67.8,65.7,29.91,NNW,337,0.0,-999.0,93,-99.99,,,0.00,Acu-Link.com,2013-10-13 07:42:00,
2013-10-13 03:58:00,67.5,65.4,29.91,NNW,337,0.0,-999.0,93,-99.99,,,0.00,Acu-Link.com,2013-10-13 07:58:00,
2013-10-13 04:13:00,67.1,65.0,29.92,NNW,337,0.0,-999.0,93,-99.99,,,0.00,Acu-Link.com,2013-10-13 08:13:00,
2013-10-13 04:28:00,66.7,64.6,29.92,NNW,337,0.0,-999.0,93,-99.99,,,0.00,Acu-Link.com,2013-10-13 08:28:00,
2013-10-13 04:43:00,66.6,64.5,29.91,NNW,337,0.0,-999.0,93,-99.99,,,0.00,Acu-Link.com,2013-10-13 08:43:00,
2013-10-13 04:59:00,66.0,64.2,29.91,NNW,337,0.0,-999.0,94,-99.99,,,0.00,Acu-Link.com,2013-10-13 08:59:00,
2013-10-13 05:14:00,65.3,63.5,29.90,NNW,337,0.0,-999.0,94,-99.99,,,0.00,Acu-Link.com,2013-10-13 09:14:00,
2013-10-13 05:29:00,65.3,63.8,29.90,NNW,337,0.0,-999.0,95,-99.99,,,0.00,Acu-Link.com,2013-10-13 09:29:00,
2013-10-13 05:44:00,64.2,62.8,29.90,NNW,337,0.0,-999.0,95,-99.99,,,0.00,Acu-Link.com,2013-10-13 09:44:00,
2013-10-13 05:59:00,63.9,62.4,29.90,NNW,337,0.0,-999.0,95,-99.99,,,0.00,Acu-Link.com,2013-10-13 09:59:00,
2013-10-13 06:14:00,63.5,62.0,29.91,NNW,337,0.0,-999.0,95,-99.99,,,0.00,Acu-Link.com,2013-10-13 10:14:00,
2013-10-13 06:30:00,63.5,62.3,29.91,NNW,337,0.0,-999.0,96,-99.99,,,0.00,Acu-Link.com,2013-10-13 10:30:00,
2013-10-13 06:45:00,63.0,62.1,29.94,NNW,337,0.0,-999.0,97,-99.99,,,0.00,Acu-Link.com,2013-10-13 10:45:00,
2013-10-13 07:00:00,62.8,61.9,29.94,NNW,337,0.0,-999.0,97,-99.99,,,0.00,Acu-Link.com,2013-10-13 11:00:00,
2013-10-13 07:15:00,62.8,61.9,29.94,NNW,337,0.0,-999.0,97,-99.99,,,0.00,Acu-Link.com,2013-10-13 11:15:00,
2013-10-13 07:30:00,62.8,61.9,29.94,NNW,337,0.0,-999.0,97,-99.99,,,0.00,Acu-Link.com,2013-10-13 11:30:00,
2013-10-13 07:46:00,62.6,61.7,29.94,NNW,337,0.0,-999.0,97,-99.99,,,0.00,Acu-Link.com,2013-10-13 11:46:00,
2013-10-13 08:01:00,62.6,61.7,29.95,NNW,337,0.0,-999.0,97,-99.99,,,0.00,Acu-Link.com,2013-10-13 12:01:00,
2013-10-13 08:16:00,63.7,62.8,29.96,NNW,337,0.0,-999.0,97,-99.99,,,0.00,Acu-Link.com,2013-10-13 12:16:00,
2013-10-13 08:32:00,65.1,64.2,29.96,NNW,337,0.0,-999.0,97,-99.99,,,0.00,Acu-Link.com,2013-10-13 12:32:00,
2013-10-13 08:47:00,66.2,64.7,29.97,NNW,337,0.0,-999.0,95,-99.99,,,0.00,Acu-Link.com,2013-10-13 12:47:00,
2013-10-13 09:02:00,68.4,65.9,29.97,NNW,337,0.0,-999.0,92,-99.99,,,0.00,Acu-Link.com,2013-10-13 13:02:00,
2013-10-13 09:18:00,70.0,65.9,29.98,NNW,337,0.0,-999.0,87,-99.99,,,0.00,Acu-Link.com,2013-10-13 13:18:00,
2013-10-13 09:33:00,71.8,67.0,29.99,NE,45,0.0,-999.0,85,-99.99,,,0.00,Acu-Link.com,2013-10-13 13:33:00,
2013-10-13 09:48:00,72.3,66.9,29.99,WNW,292,1.6,-999.0,83,-99.99,,,0.00,Acu-Link.com,2013-10-13 13:48:00,
2013-10-13 10:03:00,74.3,66.2,29.99,WNW,292,2.7,-999.0,76,-99.99,,,0.00,Acu-Link.com,2013-10-13 14:03:00,
2013-10-13 10:18:00,76.1,66.0,29.99,ENE,67,2.7,-999.0,71,-99.99,,,0.00,Acu-Link.com,2013-10-13 14:18:00,
2013-10-13 10:34:00,77.2,65.4,29.99,NNW,337,1.6,-999.0,67,-99.99,,,0.00,Acu-Link.com,2013-10-13 14:34:00,
2013-10-13 10:49:00,78.6,65.8,29.99,NE,45,1.6,-999.0,65,-99.99,,,0.00,Acu-Link.com,2013-10-13 14:49:00,
2013-10-13 11:04:00,79.2,65.0,29.99,East,90,2.2,-999.0,62,-99.99,,,0.00,Acu-Link.com,2013-10-13 15:04:00,
2013-10-13 11:20:00,80.8,62.6,29.99,West,270,3.1,-999.0,54,-99.99,,,0.00,Acu-Link.com,2013-10-13 15:20:00,
2013-10-13 11:35:00,81.3,60.9,29.99,West,270,5.8,-999.0,50,-99.99,,,0.00,Acu-Link.com,2013-10-13 15:35:00,
2013-10-13 11:50:00,80.2,61.5,30.00,ESE,112,1.1,-999.0,53,-99.99,,,0.00,Acu-Link.com,2013-10-13 15:50:00,
2013-10-13 12:06:00,80.1,58.6,29.99,NNE,22,3.1,-999.0,48,-99.99,,,0.00,Acu-Link.com,2013-10-13 16:06:00,
2013-10-13 12:21:00,82.6,61.5,29.99,NNE,22,2.2,-999.0,49,-99.99,,,0.00,Acu-Link.com,2013-10-13 16:21:00,
2013-10-13 12:36:00,82.9,60.6,29.99,NNE,22,1.6,-999.0,47,-99.99,,,0.00,Acu-Link.com,2013-10-13 16:36:00,
2013-10-13 12:51:00,84.0,62.2,29.98,NE,45,4.7,-999.0,48,-99.99,,,0.00,Acu-Link.com,2013-10-13 16:51:00,
2013-10-13 13:07:00,83.1,62.0,29.97,NE,45,3.1,-999.0,49,-99.99,,,0.00,Acu-Link.com,2013-10-13 17:07:00,
2013-10-13 13:22:00,84.2,60.5,29.97,WNW,292,4.3,-999.0,45,-99.99,,,0.00,Acu-Link.com,2013-10-13 17:22:00,
2013-10-13 13:37:00,83.5,61.1,29.97,NNE,22,2.2,-999.0,47,-99.99,,,0.00,Acu-Link.com,2013-10-13 17:37:00,
2013-10-13 13:53:00,84.9,61.8,29.95,NE,45,3.1,-999.0,46,-99.99,,,0.00,Acu-Link.com,2013-10-13 17:53:00,
2013-10-13 14:08:00,84.0,61.0,29.95,East,90,2.7,-999.0,46,-99.99,,,0.00,Acu-Link.com,2013-10-13 18:08:00,
2013-10-13 14:23:00,84.9,61.2,29.94,NE,45,2.7,-999.0,45,-99.99,,,0.00,Acu-Link.com,2013-10-13 18:23:00,
2013-10-13 14:39:00,85.5,60.4,29.94,NW,315,2.7,-999.0,43,-99.99,,,0.00,Acu-Link.com,2013-10-13 18:39:00,
2013-10-13 14:54:00,84.7,61.0,29.93,NE,45,2.2,-999.0,45,-99.99,,,0.00,Acu-Link.com,2013-10-13 18:54:00,
2013-10-13 15:09:00,83.5,60.5,29.92,SE,135,2.7,-999.0,46,-99.99,,,0.00,Acu-Link.com,2013-10-13 19:09:00,
2013-10-13 15:24:00,84.0,61.0,29.92,East,90,2.2,-999.0,46,-99.99,,,0.00,Acu-Link.com,2013-10-13 19:24:00,
2013-10-13 15:39:00,82.9,60.6,29.91,SE,135,2.2,-999.0,47,-99.99,,,0.00,Acu-Link.com,2013-10-13 19:39:00,
2013-10-13 15:54:00,84.2,59.9,29.91,West,270,4.3,-999.0,44,-99.99,,,0.00,Acu-Link.com,2013-10-13 19:54:00,
2013-10-13 16:09:00,83.8,60.8,29.91,SE,135,1.6,-999.0,46,-99.99,,,0.00,Acu-Link.com,2013-10-13 20:09:00,
2013-10-13 16:25:00,84.7,62.2,29.90,NNE,22,1.6,-999.0,47,-99.99,,,0.00,Acu-Link.com,2013-10-13 20:25:00,
2013-10-13 16:40:00,83.8,61.4,29.90,East,90,2.7,-999.0,47,-99.99,,,0.00,Acu-Link.com,2013-10-13 20:40:00,
2013-10-13 16:55:00,83.5,61.7,29.90,ENE,67,3.1,-999.0,48,-99.99,,,0.00,Acu-Link.com,2013-10-13 20:55:00,
2013-10-13 17:11:00,83.1,60.8,29.90,NE,45,3.1,-999.0,47,-99.99,,,0.00,Acu-Link.com,2013-10-13 21:11:00,
2013-10-13 17:26:00,83.5,61.7,29.90,East,90,2.2,-999.0,48,-99.99,,,0.00,Acu-Link.com,2013-10-13 21:26:00,
2013-10-13 17:41:00,82.6,60.9,29.90,SE,135,0.0,-999.0,48,-99.99,,,0.00,Acu-Link.com,2013-10-13 21:41:00,
2013-10-13 17:56:00,82.0,62.1,29.90,NE,45,2.7,-999.0,51,-99.99,,,0.00,Acu-Link.com,2013-10-13 21:56:00,
2013-10-13 18:11:00,81.0,62.2,29.90,East,90,2.7,-999.0,53,-99.99,,,0.00,Acu-Link.com,2013-10-13 22:11:00,
2013-10-13 18:27:00,80.1,63.4,29.91,ENE,67,2.2,-999.0,57,-99.99,,,0.00,Acu-Link.com,2013-10-13 22:27:00,
2013-10-13 18:42:00,79.2,63.1,29.91,ENE,67,0.0,-999.0,58,-99.99,,,0.00,Acu-Link.com,2013-10-13 22:42:00,
2013-10-13 18:57:00,78.3,62.7,29.92,North,0,1.1,-999.0,59,-99.99,,,0.00,Acu-Link.com,2013-10-13 22:57:00,
2013-10-13 19:12:00,77.4,63.3,29.92,NE,45,0.0,-999.0,62,-99.99,,,0.00,Acu-Link.com,2013-10-13 23:12:00,
2013-10-13 19:27:00,76.5,63.4,29.92,NE,45,1.6,-999.0,64,-99.99,,,0.00,Acu-Link.com,2013-10-13 23:27:00,
2013-10-13 19:43:00,75.9,62.9,29.93,NNW,337,0.0,-999.0,64,-99.99,,,0.00,Acu-Link.com,2013-10-13 23:43:00,
2013-10-13 19:58:00,75.2,63.5,29.93,East,90,0.0,-999.0,67,-99.99,,,0.00,Acu-Link.com,2013-10-13 23:58:00,
2013-10-13 20:13:00,75.0,63.3,29.93,ENE,67,1.1,-999.0,67,-99.99,,,0.00,Acu-Link.com,2013-10-14 00:13:00,
2013-10-13 20:28:00,74.5,63.2,29.94,East,90,0.0,-999.0,68,-99.99,,,0.00,Acu-Link.com,2013-10-14 00:28:00,
2013-10-13 20:44:00,73.9,63.5,29.95,North,0,0.0,-999.0,70,-99.99,,,0.00,Acu-Link.com,2013-10-14 00:44:00,
2013-10-13 20:59:00,73.6,63.6,29.95,NNW,337,0.0,-999.0,71,-99.99,,,0.00,Acu-Link.com,2013-10-14 00:59:00,
2013-10-13 21:14:00,72.7,63.1,29.95,NNW,337,0.0,-999.0,72,-99.99,,,0.00,Acu-Link.com,2013-10-14 01:14:00,
2013-10-13 21:29:00,72.0,63.2,29.95,NNW,337,0.0,-999.0,74,-99.99,,,0.00,Acu-Link.com,2013-10-14 01:29:00,
2013-10-13 21:44:00,70.9,62.9,29.96,NNW,337,0.0,-999.0,76,-99.99,,,0.00,Acu-Link.com,2013-10-14 01:44:00,
2013-10-13 22:00:00,69.8,62.6,29.96,NNW,337,0.0,-999.0,78,-99.99,,,0.00,Acu-Link.com,2013-10-14 02:00:00,
2013-10-13 22:15:00,69.1,63.0,29.96,NNW,337,0.0,-999.0,81,-99.99,,,0.00,Acu-Link.com,2013-10-14 02:15:00,
2013-10-13 22:30:00,68.2,62.8,29.97,NNW,337,0.0,-999.0,83,-99.99,,,0.00,Acu-Link.com,2013-10-14 02:30:00,
2013-10-13 22:45:00,67.5,63.1,29.97,NNW,337,0.0,-999.0,86,-99.99,,,0.00,Acu-Link.com,2013-10-14 02:45:00,
2013-10-13 23:01:00,66.9,62.9,29.97,NNW,337,0.0,-999.0,87,-99.99,,,0.00,Acu-Link.com,2013-10-14 03:01:00,
2013-10-13 23:16:00,66.9,63.6,29.96,NNW,337,0.0,-999.0,89,-99.99,,,0.00,Acu-Link.com,2013-10-14 03:16:00,
2013-10-13 23:31:00,66.9,63.6,29.96,NNW,337,0.0,-999.0,89,-99.99,,,0.00,Acu-Link.com,2013-10-14 03:31:00,
2013-10-13 23:47:00,66.9,63.9,29.96,NNW,337,0.0,-999.0,90,-99.99,,,0.00,Acu-Link.com,2013-10-14 03:47:00,